Probability
0 0 0 0 0 0 0 0 0 0 0 0 0 0 0 0 0 0 35 100 100 100 100 100 97 97 97 94 94 90 94 94 94 87 52 16 0 6 6 3 3 6 6
0 0 0 0 0 0 0 0 0 0 0 0 0 0 0 0 0 0 10 77 100 100 100 97 90 90 77 74 77 81 84 84 81 71 45 23 3 3 3 3 0 0 0
0 0 0 0 0 0 0 0 0 0 0 0 0 0 0 0 0 0 0 6 45 97 94 94 84 65 61 42 35 39 48 52 61 55 32 13 13 3 3 6 3 0 0
0 0 0 0 0 0 0 0 0 0 0 0 0 0 0 0 0 0 0 0 0 26 68 77 71 55 42 32 26 13 29 29 32 23 19 19 23 10 0 6 3 3 0
0 0 0 0 0 0 0 0 0 0 0 0 0 0 0 0 0 0 0 0 0 0 10 19 26 32 42 35 29 26 13 10 6 10 6 6 6 6 0 0 0 0 0
0 0 0 0 0 0 0 0 0 0 0 0 0 0 0 0 0 0 0 0 0 0 0 0 0 3 26 32 39 26 16 16 3 0 0 0 0 0 0 0 0 0 0
0 0 0 0 0 0 0 0 0 0 0 0 0 0 0 0 0 0 0 0 0 0 0 0 0 0 0 3 13 35 19 13 0 0 0 0 0 0 0 0 0 0 0
0 0 0 0 0 0 0 0 0 0 0 0 0 0 0 0 0 0 0 0 0 0 0 0 0 0 0 0 0 3 16 13 10 3 0 0 0 0 0 0 0 0 0
0 0 0 0 0 0 0 0 0 0 0 0 0 0 0 0 0 0 0 0 0 0 0 0 0 0 0 0 0 0 0 3 0 0 0 0 3 3 0 0 0 0 0
0 0 0 0 0 0 0 0 0 0 0 0 0 0 0 0 0 0 0 0 0 0 0 0 0 0 0 0 0 0 0 0 3 0 0 0 0 0 0 0 0 0 0
0 0 0 0 0 0 0 0 0 0 0 0 0 0 0 0 0 0 0 0 0 0 0 0 0 0 0 0 0 0 0 0 0 3 0 0 0 0 0 0 0 0 0
0 0 0 0 0 0 0 0 0 0 0 0 0 0 0 0 0 0 0 0 0 0 0 0 0 0 0 0 0 0 0 0 0 0 0 0 0 0 0 0 0 0 3
0 3 3 0 0 0 0 0 0 0 0 0 0 0 0 0 0 0 0 0 0 0 0 0 0 0 0 0 0 0 0 0 0 0 0 0 0 0 0 0 0 0 0
0 0 0 0 0 0 0 0 0 0 0 0 0 0 0 0 0 0 0 0 0 0 0 0 0 0 0 0 0 0 0 0 0 0 0 0 0 0 0 0 0 0 0
0 0 0 0 0 0 0 0 0 0 0 0 0 0 0 0 0 0 0 0 0 0 0 0 0 0 0 0 0 0 0 0 0 0 0 0 0 0 0 0 0 0 0
0 0 0 0 0 0 0 0 0 0 0 0 0 0 0 0 0 0 0 0 0 0 0 0 0 0 0 0 0 0 0 0 0 0 0 0 0 0 0 0 0 0 0
0 0 0 0 0 0 0 0 0 0 0 0 0 0 0 0 0 0 0 0 0 0 0 0 0 0 0 0 0 0 0 0 0 0 0 0 0 0 0 0 0 0 0
0 0 0 0 0 0 0 0 0 0 0 0 0 0 0 0 0 0 0 0 0 0 0 0 0 0 0 0 0 0 0 0 0 0 0 0 0 0 0 0 0 0 0
0 0 0 0 0 0 0 0 0 0 0 0 0 0 0 0 0 0 0 0 0 0 0 0 0 0 0 0 0 0 0 0 0 0 0 0 0 0 0 0 0 0 0
0 0 0 0 0 0 0 0 0 0 0 0 0 0 0 0 0 0 0 0 0 0 0 0 0 0 0 0 0 0 0 0 0 0 0 0 0 0 0 0 0 0 0
0 0 0 0 0 0 0 0 0 0 0 0 0 0 0 0 0 0 0 0 0 0 0 0 0 0 0 0 0 0 0 0 0 0 0 0 0 0 0 0 0 0 0
0 0 0 0 0 0 0 0 0 0 0 0 0 0 0 0 0 0 0 0 0 0 0 0 0 0 0 0 0 0 0 0 0 0 0 0 0 0 0 0 0 0 0
0 0 0 0 0 0 0 3 0 0 0 0 0 0 0 0 0 0 0 0 0 0 0 0 0 0 0 0 0 0 0 0 0 0 0 0 0 0 0 0 0 0 0
0 0 0 0 0 0 0 6 0 0 0 0 0 0 0 0 0 0 0 0 0 0 0 0 0 0 0 0 0 0 0 0 0 0 0 0 0 0 0 0 0 0 0
0 0 0 0 0 0 0 0 3 0 0 0 0 0 0 0 0 0 0 0 0 0 0 0 0 0 0 0 0 0 0 0 0 0 0 0 0 0 0 0 0 0 0
0 0 0 0 0 0 0 0 6 0 0 0 0 0 0 0 0 0 0 0 0 0 0 0 0 0 0 0 0 0 0 0 0 0 0 0 0 0 0 0 0 0 0
Height
5868 5867 5865 5864 5862 5861 5860 5860 5861 5861 5861 5862 5863 5864 5865 5867 5868 5870 5871 5872 5874 5875 5876 5877 5878 5879 5879 5880 5881 5882 5884 5886 5887 5889 5892 5894 5896 5897 5898 5899 5899 5899 5900
5867 5866 5864 5862 5861 5860 5859 5859 5858 5859 5859 5859 5860 5861 5862 5863 5865 5866 5867 5869 5870 5871 5872 5873 5874 5875 5876 5877 5878 5880 5881 5883 5885 5887 5890 5892 5894 5895 5896 5897 5898 5898 5898
5864 5863 5862 5860 5859 5857 5857 5856 5856 5856 5856 5856 5856 5858 5859 5860 5861 5862 5863 5864 5865 5867 5868 5869 5871 5872 5873 5874 5875 5877 5879 5881 5883 5885 5887 5890 5892 5893 5894 5895 5896 5896 5896
5862 5861 5860 5858 5856 5855 5854 5853 5852 5852 5853 5853 5853 5854 5855 5856 5857 5858 5859 5860 5861 5862 5864 5865 5867 5868 5869 5870 5872 5873 5876 5878 5880 5883 5885 5887 5889 5891 5892 5893 5894 5894 5894
5858 5858 5857 5855 5854 5852 5851 5850 5849 5849 5848 5849 5849 5850 5852 5852 5853 5854 5855 5855 5856 5858 5860 5861 5863 5864 5865 5867 5868 5870 5872 5875 5877 5879 5882 5884 5886 5888 5889 5890 5891 5892 5892
5854 5854 5852 5851 5850 5848 5847 5846 5846 5845 5844 5844 5845 5846 5848 5849 5849 5850 5851 5851 5852 5854 5855 5857 5859 5860 5862 5863 5864 5866 5869 5871 5873 5876 5878 5880 5882 5884 5886 5887 5888 5889 5889
5849 5848 5847 5846 5845 5844 5843 5842 5841 5841 5841 5840 5840 5842 5843 5845 5846 5846 5847 5847 5848 5849 5851 5853 5855 5856 5858 5859 5861 5862 5865 5867 5870 5872 5874 5876 5878 5880 5882 5884 5885 5886 5886
5844 5843 5841 5841 5840 5839 5838 5838 5837 5836 5836 5836 5836 5837 5838 5841 5843 5843 5843 5843 5844 5845 5847 5849 5850 5852 5854 5856 5857 5859 5861 5863 5865 5868 5870 5872 5874 5876 5878 5879 5881 5882 5883
5838 5837 5836 5834 5834 5834 5833 5832 5831 5831 5831 5831 5831 5833 5834 5836 5838 5840 5840 5840 5841 5841 5843 5844 5846 5848 5850 5852 5854 5856 5857 5859 5861 5863 5865 5867 5869 5871 5873 5875 5877 5879 5880
5832 5831 5830 5829 5828 5828 5827 5826 5826 5825 5826 5826 5826 5827 5829 5832 5834 5836 5837 5837 5837 5838 5839 5841 5843 5845 5847 5848 5850 5852 5854 5856 5858 5860 5862 5863 5865 5867 5869 5871 5873 5875 5877
5826 5825 5824 5823 5822 5821 5820 5820 5819 5819 5820 5820 5821 5822 5824 5826 5829 5831 5833 5834 5835 5835 5836 5837 5839 5841 5843 5845 5847 5849 5851 5853 5855 5856 5858 5860 5862 5864 5865 5867 5869 5871 5873
5820 5818 5817 5816 5815 5814 5814 5813 5813 5813 5813 5814 5815 5817 5818 5820 5823 5826 5828 5830 5832 5833 5834 5835 5836 5838 5840 5842 5844 5846 5847 5849 5851 5853 5855 5856 5858 5860 5861 5863 5865 5867 5869
5813 5812 5811 5810 5809 5807 5807 5807 5806 5806 5807 5808 5810 5812 5813 5815 5817 5820 5823 5825 5828 5830 5831 5832 5833 5835 5837 5839 5840 5842 5844 5845 5847 5849 5851 5852 5854 5856 5858 5859 5861 5863 5864
5807 5805 5804 5803 5802 5801 5800 5800 5800 5800 5801 5803 5804 5806 5808 5809 5811 5814 5817 5820 5823 5826 5827 5829 5830 5832 5834 5836 5837 5839 5840 5842 5843 5845 5847 5848 5850 5852 5853 5855 5856 5858 5860
5801 5800 5798 5797 5796 5795 5794 5794 5794 5795 5796 5797 5799 5800 5802 5804 5805 5808 5811 5814 5818 5820 5823 5825 5827 5828 5830 5832 5833 5835 5836 5838 5839 5841 5843 5844 5846 5847 5849 5850 5852 5853 5855
5795 5793 5792 5791 5791 5790 5789 5789 5789 5790 5791 5792 5793 5795 5796 5797 5800 5801 5804 5807 5811 5814 5817 5820 5822 5824 5826 5828 5829 5831 5832 5834 5835 5837 5838 5840 5842 5843 5845 5846 5847 5849 5850
5789 5787 5786 5786 5785 5785 5785 5785 5785 5786 5786 5787 5788 5789 5791 5791 5793 5795 5797 5800 5803 5807 5811 5814 5816 5819 5821 5823 5825 5826 5828 5829 5831 5832 5834 5835 5837 5839 5840 5841 5842 5844 5845
5783 5782 5781 5780 5780 5780 5780 5780 5780 5781 5782 5782 5783 5784 5785 5786 5787 5788 5790 5793 5796 5799 5803 5807 5810 5813 5815 5817 5819 5821 5823 5824 5826 5827 5829 5830 5832 5833 5835 5836 5837 5838 5839
5778 5777 5776 5775 5775 5774 5774 5774 5775 5775 5776 5777 5778 5778 5779 5780 5781 5782 5783 5785 5788 5791 5795 5799 5803 5806 5808 5811 5813 5815 5817 5818 5820 5822 5823 5825 5826 5828 5829 5831 5832 5833 5834
5772 5771 5771 5770 5769 5768 5768 5768 5769 5770 5770 5771 5772 5773 5774 5774 5775 5776 5777 5779 5781 5783 5787 5791 5794 5798 5801 5803 5806 5808 5810 5812 5814 5816 5817 5818 5820 5821 5823 5825 5826 5827 5828
5767 5766 5765 5764 5763 5763 5763 5763 5763 5763 5764 5765 5766 5767 5768 5769 5770 5771 5771 5773 5775 5777 5779 5782 5785 5789 5792 5796 5799 5801 5803 5805 5808 5809 5810 5812 5814 5815 5816 5818 5819 5820 5821
5762 5760 5759 5758 5757 5757 5757 5757 5757 5757 5758 5758 5759 5760 5762 5763 5764 5765 5766 5767 5769 5770 5772 5774 5777 5780 5784 5787 5790 5793 5795 5798 5800 5801 5802 5805 5807 5808 5809 5810 5812 5813 5814
5755 5753 5752 5752 5751 5750 5750 5750 5750 5751 5751 5752 5753 5754 5755 5757 5758 5759 5760 5761 5763 5764 5766 5768 5770 5772 5775 5778 5782 5785 5787 5790 5792 5793 5796 5797 5798 5799 5800 5802 5804 5805 5806
5747 5746 5745 5745 5744 5744 5743 5743 5743 5744 5745 5746 5746 5748 5749 5750 5752 5753 5755 5756 5757 5758 5760 5761 5763 5765 5767 5770 5773 5776 5779 5782 5784 5786 5787 5789 5789 5791 5792 5794 5795 5796 5797
5741 5739 5739 5738 5738 5737 5737 5737 5737 5737 5738 5739 5740 5741 5742 5743 5745 5746 5748 5749 5751 5752 5754 5755 5757 5758 5760 5762 5765 5767 5770 5773 5775 5777 5778 5780 5781 5782 5783 5785 5786 5787 5788
5735 5733 5732 5732 5731 5730 5730 5730 5730 5730 5731 5732 5733 5734 5735 5736 5738 5739 5741 5743 5744 5746 5748 5749 5750 5752 5754 5755 5757 5759 5761 5763 5766 5768 5769 5771 5772 5773 5775 5775 5776 5778 5778
Wind_Speed
10 11 13 13 11 10 8 8 9 10 11 12 14 16 18 19 21 21 22 21 21 19 18 17 16 15 14 14 14 14 13 13 14 16 16 14 12 9 7 6 6 6 6
10 11 12 13 12 11 9 9 10 11 12 13 14 15 17 19 20 21 22 23 22 22 20 19 18 17 16 16 16 16 15 15 15 16 16 15 13 10 8 7 7 7 7
9 11 12 13 13 12 11 11 12 12 13 14 15 15 17 17 19 20 22 22 23 22 21 20 19 18 18 17 18 18 17 17 16 16 16 16 14 12 9 8 7 7 7
9 10 11 12 13 13 13 12 13 14 14 15 15 16 16 16 17 19 20 22 22 23 22 21 20 19 18 18 19 20 19 19 18 17 17 17 16 14 12 10 9 8 8
11 11 12 13 14 14 15 14 13 15 16 17 17 16 16 16 16 17 18 20 21 22 22 21 20 19 18 18 19 21 22 21 20 19 18 18 18 17 14 12 11 10 9
14 13 13 14 14 15 16 16 15 15 17 18 18 17 16 16 16 16 16 18 19 20 20 20 19 18 17 17 18 20 23 22 21 21 20 20 19 18 16 15 13 12 10
15 16 16 16 16 17 18 18 17 17 17 19 20 19 18 17 16 16 15 15 17 19 20 20 20 19 18 17 17 19 21 23 23 22 22 21 20 20 18 17 15 13 12
17 18 18 19 19 20 21 21 20 19 18 19 20 21 20 18 17 16 14 14 15 17 20 21 21 21 20 19 18 18 20 22 22 22 22 22 21 20 19 18 16 14 13
19 20 21 21 22 23 23 23 22 20 19 19 20 21 21 20 18 16 14 13 13 15 18 21 22 22 21 21 20 19 19 20 21 21 21 21 20 19 19 18 17 16 15
22 22 23 24 24 24 24 25 24 22 20 20 21 22 23 21 19 17 15 13 13 14 16 20 21 22 22 21 20 19 19 19 20 19 19 19 18 18 18 18 18 18 16
24 24 24 24 24 24 25 26 26 25 23 21 21 22 23 24 23 20 18 15 13 13 14 17 19 20 21 21 20 19 18 18 19 19 18 18 18 18 18 18 19 19 18
25 25 25 24 24 24 25 26 27 27 24 22 21 22 23 24 26 24 21 18 16 14 14 15 16 17 18 19 20 19 19 18 19 19 19 19 19 19 18 18 19 20 20
25 25 24 23 23 23 24 25 25 26 24 23 22 22 21 22 26 26 24 21 19 17 16 15 15 15 15 17 17 18 19 18 18 18 18 18 18 18 19 18 19 20 21
23 24 23 22 22 22 22 22 22 23 24 23 23 23 22 22 24 26 26 25 23 21 19 17 16 15 14 15 16 16 17 18 18 18 17 17 17 17 17 17 18 19 20
23 22 22 21 20 19 19 18 18 19 21 22 22 22 23 23 22 25 27 27 26 24 22 21 19 18 16 16 16 16 17 18 18 18 17 17 17 16 16 16 17 18 19
21 20 20 20 19 18 17 16 16 16 17 19 20 20 21 22 23 23 26 29 29 29 27 25 23 21 20 19 19 18 18 19 19 19 19 18 18 18 18 18 18 18 19
20 19 19 19 19 19 17 17 16 17 17 18 19 20 21 22 23 23 25 28 31 32 31 29 27 25 24 22 21 20 20 21 21 21 20 20 20 20 19 19 19 19 19
20 20 19 19 19 20 19 18 18 17 17 17 18 19 20 21 23 23 24 27 31 33 34 32 31 30 28 26 24 23 22 22 22 22 22 22 22 21 21 20 20 20 20
20 20 20 20 19 20 21 21 20 19 19 19 18 18 19 20 21 23 24 26 30 32 34 34 34 34 32 30 28 26 25 24 24 24 24 24 23 23 23 22 21 21 22
20 20 20 20 19 19 20 22 22 22 21 21 20 20 19 19 19 21 23 24 27 30 33 34 36 36 35 34 32 31 29 28 26 25 26 26 26 25 24 24 24 24 24
19 20 20 20 19 19 20 21 22 23 23 23 22 21 21 20 20 20 21 23 24 27 29 34 36 37 37 36 35 34 33 32 30 29 30 29 29 28 27 27 27 27 26
20 20 20 20 20 20 21 21 22 23 23 23 23 22 22 21 20 20 20 21 23 25 27 31 34 36 37 37 36 35 34 33 32 33 32 31 31 31 31 30 30 30 30
22 21 21 21 21 21 21 21 22 22 23 23 23 23 22 21 20 19 19 20 21 22 24 25 27 30 34 36 37 36 35 33 34 35 34 33 33 34 34 33 32 32 32
23 22 21 20 20 21 21 21 21 22 22 22 22 23 23 23 22 21 21 20 20 21 22 23 25 27 30 32 34 35 35 34 34 34 34 34 36 36 35 34 33 33 33
22 21 20 19 20 20 21 21 22 22 23 23 23 23 23 24 23 23 22 22 22 22 21 22 23 25 26 28 31 33 34 34 34 34 35 34 35 36 35 34 34 33 34
20 20 19 19 19 19 20 20 21 22 23 23 24 24 24 24 24 24 23 23 23 23 23 23 23 24 25 27 28 30 31 32 33 34 35 34 35 36 35 35 35 35 35
Wind_Direction
354 350 348 349 351 343 325 298 278 267 257 249 244 240 240 239 239 237 235 235 237 239 241 242 243 247 247 244 238 230 222 218 215 211 212 214 219 227 244 262 266 266 267
340 340 338 340 344 340 325 302 279 267 262 257 251 246 243 242 242 241 240 239 239 239 240 240 242 245 247 244 237 229 221 216 212 211 213 215 220 228 242 259 267 268 270
321 328 328 328 330 330 324 308 287 272 261 256 252 249 248 246 244 242 241 241 240 239 238 238 241 244 245 244 236 227 221 217 215 215 216 219 223 232 243 258 268 270 271
294 311 313 312 314 315 316 309 293 278 266 257 252 251 252 248 245 244 242 241 239 237 236 237 240 242 244 243 237 228 223 221 219 218 220 222 227 234 245 256 266 268 269
284 295 299 299 300 301 303 304 294 281 272 264 256 253 251 247 245 244 243 242 239 237 235 237 239 240 241 241 237 229 225 224 223 224 225 228 231 237 244 252 260 263 262
287 289 289 290 289 289 293 295 291 283 273 267 261 255 250 246 246 246 245 242 238 235 233 232 233 235 237 236 233 228 226 226 227 229 231 233 236 239 244 249 254 254 251
285 288 287 284 283 283 284 286 285 281 274 263 258 255 249 244 244 248 249 244 236 231 228 227 228 231 231 229 227 225 225 226 229 232 235 237 238 240 243 246 247 244 240
286 287 286 283 279 278 278 279 279 277 273 262 255 251 248 243 240 245 251 247 236 227 223 223 225 226 226 225 224 224 224 226 228 231 234 236 237 239 240 241 238 234 228
286 286 283 280 276 273 272 271 272 272 268 260 253 249 246 242 239 240 244 244 236 228 223 222 223 225 225 225 224 223 224 224 225 227 230 232 234 234 236 235 230 224 219
286 284 281 280 277 273 268 266 267 266 262 259 254 248 243 240 238 236 239 240 232 226 224 224 224 224 225 224 223 223 224 223 223 224 226 227 228 229 229 228 223 218 216
286 283 280 278 276 271 265 262 260 258 257 255 251 247 244 240 236 234 236 236 230 223 222 225 225 224 224 223 223 223 223 224 223 224 225 226 227 227 227 226 222 220 221
285 283 281 277 273 268 263 260 258 256 255 250 247 246 245 243 235 229 231 232 230 223 219 222 225 224 224 224 223 224 225 227 228 229 231 232 231 230 229 228 228 228 229
282 281 278 275 271 266 263 260 256 254 251 248 245 244 244 244 236 229 228 230 229 226 221 221 224 224 223 224 225 226 228 230 232 234 236 236 235 233 232 233 234 235 237
281 279 275 272 269 265 264 261 257 252 250 247 245 244 243 243 238 231 227 226 227 227 226 224 225 226 225 225 225 225 227 230 232 234 235 236 236 236 237 238 241 243 244
280 277 273 269 266 264 262 259 255 251 248 247 246 245 243 243 240 235 230 227 227 228 229 228 228 230 231 231 231 229 229 231 232 233 234 235 236 238 240 243 245 248 249
280 276 272 268 264 262 261 258 254 250 249 248 247 247 248 245 242 242 236 230 227 228 229 230 230 231 233 234 235 235 234 234 234 235 235 236 238 240 242 245 246 248 249
281 277 274 269 263 260 258 257 254 251 251 250 248 247 248 247 244 245 242 235 230 229 229 230 231 231 232 233 235 237 237 237 238 239 239 240 241 243 244 245 246 247 247
281 277 274 271 266 260 256 255 255 253 252 251 251 249 247 248 247 247 246 240 232 229 229 230 231 232 234 235 236 239 239 239 239 240 240 241 242 244 245 246 247 248 248
283 279 275 273 268 263 258 256 256 255 253 252 253 252 248 249 249 247 247 243 237 233 231 230 231 232 234 237 239 240 242 243 242 242 242 242 243 244 246 247 248 249 250
285 282 279 275 271 266 262 258 256 256 255 254 254 255 253 251 252 251 247 244 239 236 235 235 234 232 233 236 238 241 243 244 246 245 244 244 244 245 246 248 249 250 251
286 284 282 278 274 269 265 262 259 257 256 256 256 256 256 255 254 255 249 244 243 239 240 239 237 235 235 236 238 241 244 246 248 248 246 246 246 247 248 249 251 252 253
290 286 283 280 276 272 268 265 262 259 257 257 257 256 256 255 254 253 251 248 246 245 245 243 240 238 237 236 238 241 243 244 246 248 249 249 249 250 251 252 253 254 255
293 289 284 280 277 274 270 265 262 260 258 258 256 255 254 253 252 251 249 249 247 244 245 243 242 241 239 238 238 240 242 243 244 248 250 252 252 252 254 256 256 257 257
293 291 286 281 277 275 271 267 263 260 257 257 256 255 254 253 252 251 249 248 248 246 245 246 245 243 242 240 239 239 241 242 244 247 249 251 253 254 256 257 258 259 259
294 291 287 282 279 275 271 268 264 259 257 256 255 254 253 253 252 251 249 247 246 246 246 245 244 244 243 243 242 242 242 243 244 246 248 250 253 255 256 258 258 258 258
294 291 288 285 282 278 274 270 266 262 258 256 254 253 253 253 252 252 251 251 248 247 247 248 247 246 246 246 246 246 245 246 246 247 248 249 251 254 256 257 258 257 257